TimeEST,TemperatureF,Dew PointF,Humidity,Sea Level PressureIn,VisibilityMPH,Wind Direction,Wind SpeedMPH,Gust SpeedMPH,PrecipitationIn,Events,Conditions,WindDirDegrees,DateUTC
12:53 AM,12.9,-0.0,56,30.07,10.0,WNW,6.9,-,N/A,,Clear,290,2013-01-23 05:53:00
1:53 AM,12.0,-2.0,53,30.09,10.0,West,9.2,-,N/A,,Clear,280,2013-01-23 06:53:00
2:53 AM,10.0,-0.0,64,30.10,10.0,West,4.6,-,N/A,,Clear,270,2013-01-23 07:53:00
3:53 AM,10.9,-5.1,49,30.10,10.0,WNW,8.1,-,N/A,,Clear,290,2013-01-23 08:53:00
4:53 AM,10.0,-5.1,51,30.12,10.0,WNW,13.8,18.4,N/A,,Clear,290,2013-01-23 09:53:00
5:53 AM,10.0,-5.1,51,30.13,10.0,WNW,9.2,19.6,N/A,,Clear,290,2013-01-23 10:53:00
6:53 AM,9.0,-7.1,48,30.14,10.0,West,10.4,-,N/A,,Clear,270,2013-01-23 11:53:00
7:53 AM,9.0,-6.0,51,30.15,10.0,West,11.5,18.4,N/A,,Clear,280,2013-01-23 12:53:00
8:53 AM,10.9,-6.0,47,30.16,10.0,West,16.1,24.2,N/A,,Clear,280,2013-01-23 13:53:00
9:53 AM,12.9,-5.1,45,30.17,10.0,West,20.7,26.5,N/A,,Clear,270,2013-01-23 14:53:00
10:53 AM,14.0,-4.0,45,30.14,10.0,West,16.1,25.3,N/A,,Scattered Clouds,270,2013-01-23 15:53:00
11:53 AM,14.0,-6.0,41,30.12,10.0,WNW,17.3,26.5,N/A,,Mostly Cloudy,290,2013-01-23 16:53:00
12:53 PM,16.0,-5.1,39,30.09,10.0,West,20.7,28.8,N/A,,Mostly Cloudy,270,2013-01-23 17:53:00
1:53 PM,15.1,-6.0,39,30.08,10.0,WNW,17.3,26.5,N/A,,Mostly Cloudy,290,2013-01-23 18:53:00
2:53 PM,16.0,-6.0,38,30.09,10.0,WNW,13.8,23.0,N/A,,Scattered Clouds,300,2013-01-23 19:53:00
3:53 PM,15.1,-7.1,37,30.09,10.0,West,13.8,19.6,N/A,,Clear,270,2013-01-23 20:53:00
4:53 PM,14.0,-7.1,39,30.10,10.0,WNW,17.3,23.0,N/A,,Clear,290,2013-01-23 21:53:00
5:53 PM,12.9,-8.0,39,30.12,10.0,WNW,6.9,21.9,N/A,,Clear,300,2013-01-23 22:53:00
6:53 PM,12.0,-8.0,41,30.13,10.0,NW,4.6,-,N/A,,Clear,310,2013-01-23 23:53:00
7:53 PM,10.9,-7.1,44,30.13,10.0,WNW,9.2,17.3,N/A,,Clear,300,2013-01-24 00:53:00
8:53 PM,10.9,-8.0,42,30.13,10.0,WNW,15.0,21.9,N/A,,Clear,290,2013-01-24 01:53:00
9:53 PM,10.4,-9.4,41,30.14,10.0,WNW,10.4,-,N/A,,Clear,300,2013-01-24 02:53:00
10:53 PM,9.0,-9.9,42,30.14,10.0,NW,8.1,-,N/A,,Clear,310,2013-01-24 03:53:00
11:53 PM,8.1,-9.9,44,30.13,10.0,WNW,9.2,-,N/A,,Clear,290,2013-01-24 04:53:00